User: anonymous   Login
Location: Theydon Bois
(51.6750°N, 0.1050°E)
Time: 18:44:05
(UTC+01:00)
Language:

Cosmos 1295 Rocket - Orbit

View from above orbital plane
View from above orbital plane
View from above satellite
View from above satellite

Ground track
Ground track

The orbit data is extracted from the following two-line orbital elements,

1 12682U 81077B   18108.57087837 -.00000011  00000-0 -26049-4 0  9994
2 12682  82.9157 147.7387 0033417 205.2089 154.7440 13.78547690844937
Epoch (UTC): 18 April 2018 13:42:03
Eccentricity: 0.0033417
inclination: 82.9157°
perigee height: 944 km
apogee height: 993 km
right ascension of ascending node: 147.7387°
argument of perigee: 205.2089°
revolutions per day: 13.78547690
mean anomaly at epoch: 154.7440°
orbit number at epoch: 84493

The dashed part of the orbit path shows where the satellite is in the earth's shadow,  

DLR